[[{"header":{"parameterUnit":"m.s-1","parameterCategory":1,"la1":30.2991,"la2":30.254,"lo1":-89.0895,"lo2":-89.0444,"dy":0.0017,"dx":0.0017,"nx":28,"ny":28,"refTime":"2024-11-22T03:00:00:Z","depth":0,"parameterNumber":2,"parameterNumberName":"U-component_of_WINDS"},"data":[0,0,0,0,0,0,0,0,0,0,0,0,0,0,0,0,0,0,0,0,0,0,0,0,0,0,0,0,0,0,0,0,0,0,0,0,0,0,0,0,0,0,0,0,0,0,0,0,0,0,0,0,0,0,0,0,0,0,0.907,0.907,0,0.9058,0.9058,0.9058,0.9046,0.9046,0.9045,0.9045,0.9032,0.9032,0.9032,0,0,0,0,0,0,0,0,0,0,0,0,0,0.9082,0.9082,0.907,0.907,0.907,0.9058,0.9058,0.9058,0.9046,0.9046,0.9045,0.9045,0.9032,0.9032,0.9032,0,0,0,0,0,0,0,0,0,0,0,0,0,0.9074,0.9082,0.907,0.9062,0.9062,0.9058,0.9058,0.9058,0.9046,0.9046,0.9045,0.9045,0.9032,0.9032,0.9032,0.9035,0,0,0.9031,0.9031,0,0,0,0,0,0,0,0,0.9075,0.9074,0.9064,0.9063,0.9062,0.9053,0.9058,0.905,0.9046,0.9052,0.9045,0.9045,0.9039,0.9038,0.9037,0.9034,0.9034,0.9031,0.9031,0.9031,0.9031,0,0,0,0,0,0,0,0.9075,0.9074,0.9065,0.9064,0.9063,0.906,0.9058,0.9056,0.9047,0.9051,0.905,0.9049,0.9039,0.9037,0.9036,0.9034,0.9031,0.9031,0.903,0.903,0.9035,0.9036,0,0,0,0,0,0,0.9077,0.9075,0.9066,0.9065,0.9068,0.906,0.9058,0.9056,0.9047,0.9045,0.9049,0.9049,0.9038,0.9037,0.9036,0.904,0.9031,0.903,0.903,0.9035,0.9035,0.9036,0,0,0,0,0,0,0.9077,0.9076,0.9066,0.907,0.9068,0.906,0.9058,0.9056,0.9054,0.9046,0.9044,0.9049,0.9037,0.9036,0.9036,0.904,0.903,0.903,0.9035,0.9035,0.9036,0.9048,0,0,0,0,0,0,0.9078,0.9077,0.9078,0.907,0.9068,0.9066,0.9058,0.9056,0.9054,0.9053,0.9045,0.9044,0.9037,0.9036,0.9036,0.9039,0.903,0.9034,0.9035,0.9035,0.9047,0.9049,0.905,0,0,0,0,0,0.9078,0.9081,0.9078,0.9077,0.9069,0.9066,0.9065,0.9058,0.9054,0.9056,0.905,0.9044,0.9039,0.9036,0.9035,0.9039,0.9034,0.9035,0.9035,0.9047,0.9049,0.905,0,0,0,0,0,0,0.9088,0.908,0.9076,0.9076,0.9072,0.9064,0.9065,0.906,0.9057,0.9056,0.9047,0.9046,0.9047,0.9043,0.9039,0.9042,0.9036,0.9036,0.9045,0.9047,0.9048,0.9049,0.9029,0,0,0,0,0,0.9091,0.9089,0.9082,0.9083,0.9081,0.9074,0.9072,0.9067,0.9063,0.9061,0.9056,0.9051,0.9049,0.9048,0.9045,0.9047,0.9046,0.9049,0.9051,0.9052,0.9052,0.9055,0.9056,0.9038,0.9038,0.9038,0,0,0.9095,0.909,0.909,0.9085,0.9081,0.908,0.9072,0.9071,0.9071,0.9061,0.906,0.9056,0.9051,0.9052,0.9053,0.9049,0.9057,0.9053,0.9054,0.9053,0.9055,0.9057,0.9059,0.9039,0.9038,0.9038,0,0,0.9103,0.9099,0.91,0.9097,0.9092,0.9088,0.9088,0.9081,0.9079,0.9078,0.9071,0.9071,0.9067,0.9064,0.9062,0.9071,0.9065,0.907,0.9078,0.908,0.9082,0.9083,0.9087,0.9089,0.9071,0.9071,0.9071,0,0.9109,0.9107,0.9101,0.9101,0.9099,0.9091,0.9093,0.909,0.9084,0.9084,0.908,0.9076,0.9072,0.9073,0.9076,0.9074,0.9075,0.9071,0.9082,0.9083,0.9084,0.9088,0.909,0.9072,0.9072,0.9071,0.9071,0,0.9116,0.9115,0.9116,0.9112,0.9111,0.9111,0.9105,0.9105,0.9101,0.9097,0.9097,0.9092,0.9089,0.9089,0.9085,0.909,0.9089,0.9084,0.9077,0.9087,0.909,0.9092,0.9073,0.9072,0.9072,0.9072,0,0,0.9128,0.9122,0.9122,0.9121,0.9116,0.9115,0.9116,0.9114,0.9114,0.9111,0.9112,0.911,0.9106,0.9104,0.9099,0.9101,0.911,0.9096,0.9096,0.91,0.9118,0.9122,0.9123,0.9107,0.9107,0.9107,0.9118,0,0.9135,0.9136,0.9131,0.9134,0.9134,0.9127,0.9128,0.9126,0.9123,0.9122,0.9119,0.9118,0.9112,0.9111,0.9113,0.9109,0.9114,0.9108,0.9108,0.9108,0.911,0.9125,0.9128,0.9139,0.912,0.912,0.912,0,0.9143,0.9142,0.9144,0.9141,0.9141,0.9142,0.914,0.914,0.9137,0.9135,0.9134,0.9129,0.913,0.9125,0.9127,0.9123,0.9123,0.9121,0.9122,0.9121,0.9115,0.9125,0.9142,0.9144,0.9122,0.9122,0.9122,0,0.9152,0.9151,0.9153,0.9152,0.9148,0.9149,0.9147,0.9145,0.9144,0.9143,0.9143,0.9142,0.9141,0.9141,0.9136,0.9132,0.914,0.9133,0.9138,0.9138,0.9139,0.9139,0.9157,0.9139,0.9139,0.9139,0.9139,0,0.9161,0.9163,0.9157,0.9158,0.9161,0.9156,0.9159,0.9157,0.9155,0.9156,0.915,0.9151,0.9145,0.9146,0.9143,0.9146,0.9145,0.9144,0.9143,0.9144,0.9145,0.9144,0.9143,0.914,0.914,0.914,0.9139,0,0.9171,0.9167,0.9169,0.9166,0.9165,0.9168,0.9165,0.9166,0.9164,0.9165,0.9165,0.9161,0.9162,0.9158,0.9157,0.9155,0.916,0.9158,0.9161,0.916,0.9166,0.9166,0.9183,0.9186,0.9167,0.9167,0.9167,0,0.9177,0.9178,0.9176,0.9176,0.9175,0.9176,0.9176,0.9172,0.9172,0.9171,0.9173,0.9173,0.9173,0.9175,0.9172,0.9173,0.917,0.9177,0.917,0.9172,0.9171,0.9171,0.9172,0.9178,0.9178,0.9178,0.9178,0,0.9187,0.9186,0.9186,0.9186,0.9187,0.9187,0.9186,0.9187,0.9183,0.9184,0.9185,0.9185,0.9186,0.9187,0.9187,0.9186,0.9182,0.9181,0.9182,0.9183,0.9186,0.9185,0.9165,0.918,0.918,0.918,0.918,0.918,0.9195,0.9197,0.9196,0.9197,0.9197,0.9197,0.9199,0.9197,0.9198,0.9199,0.9196,0.9198,0.9198,0.9198,0.9197,0.9199,0.9196,0.9198,0.9198,0.9199,0.92,0.9186,0.9199,0.9199,0.9199,0.9199,0.9199,0,0.9206,0.9206,0.9207,0.9207,0.9208,0.9205,0.9205,0.9206,0.9208,0.9208,0.9209,0.9212,0.9213,0.9211,0.9213,0.9215,0.9213,0.9215,0.9215,0.9215,0.9202,0.9201,0.9217,0.9217,0.9217,0.9217,0.9217,0.9217,0.9212,0.9215,0.9214,0.9218,0.9217,0.922,0.922,0.9221,0.9221,0.9224,0.9225,0.9224,0.9224,0.9226,0.9227,0.9227,0.9228,0.9231,0.923,0.9217,0.9216,0.9214,0.9213,0.9231,0.9231,0.9242,0.9243,0.9243]},{"header":{"parameterUnit":"m.s-1","parameterCategory":1,"la1":30.2991,"la2":30.254,"lo1":-89.0895,"lo2":-89.0444,"dy":0.0017,"dx":0.0017,"nx":28,"ny":28,"refTime":"2024-11-22T03:00:00:Z","depth":0,"parameterNumber":3,"parameterNumberName":"V-component_of_WINDS"},"data":[0,0,0,0,0,0,0,0,0,0,0,0,0,0,0,0,0,0,0,0,0,0,0,0,0,0,0,0,0,0,0,0,0,0,0,0,0,0,0,0,0,0,0,0,0,0,0,0,0,0,0,0,0,0,0,0,0,0,-5.0766,-5.0768,0,-5.0941,-5.0943,-5.0945,-5.0896,-5.0892,-5.0889,-5.0885,-5.1061,-5.1069,-5.1077,0,0,0,0,0,0,0,0,0,0,0,0,0,-5.0386,-5.0393,-5.0766,-5.0768,-5.0771,-5.0941,-5.0943,-5.0945,-5.0897,-5.0892,-5.0888,-5.0884,-5.1058,-5.1068,-5.1077,0,0,0,0,0,0,0,0,0,0,0,0,0,-5.0555,-5.0395,-5.0766,-5.0767,-5.0769,-5.094,-5.0943,-5.0946,-5.0897,-5.0892,-5.0887,-5.0882,-5.1055,-5.1067,-5.1079,-5.1259,0,0,-5.1115,-5.112,0,0,0,0,0,0,0,0,-5.0545,-5.0569,-5.0764,-5.0767,-5.0769,-5.0891,-5.0873,-5.1051,-5.0899,-5.0848,-5.0885,-5.0879,-5.1009,-5.1024,-5.1068,-5.1267,-5.1275,-5.1116,-5.1123,-5.1129,-5.1132,0,0,0,0,0,0,0,-5.0533,-5.0561,-5.0835,-5.0767,-5.077,-5.0757,-5.0775,-5.0907,-5.0956,-5.0852,-5.0849,-5.0871,-5.1009,-5.1057,-5.1072,-5.1277,-5.1116,-5.1126,-5.1134,-5.1139,-5.1629,-5.1635,0,0,0,0,0,0,-5.052,-5.0551,-5.083,-5.084,-5.0642,-5.0768,-5.0788,-5.0857,-5.0955,-5.0964,-5.0875,-5.0868,-5.1039,-5.1058,-5.1078,-5.1294,-5.1128,-5.114,-5.1147,-5.1624,-5.1631,-5.1637,0,0,0,0,0,0,-5.0512,-5.0546,-5.0823,-5.0695,-5.0729,-5.078,-5.0858,-5.0864,-5.0912,-5.0972,-5.098,-5.0916,-5.1036,-5.1061,-5.1214,-5.1299,-5.1145,-5.1156,-5.1617,-5.1626,-5.1634,-5.1728,0,0,0,0,0,0,-5.0502,-5.0543,-5.0614,-5.0697,-5.0736,-5.0957,-5.0864,-5.0871,-5.0933,-5.0925,-5.1012,-5.1021,-5.1033,-5.1196,-5.1226,-5.1313,-5.1165,-5.1609,-5.1621,-5.1631,-5.1717,-5.1739,-5.1757,0,0,0,0,0,-5.0488,-5.0633,-5.0617,-5.0651,-5.0826,-5.0963,-5.0985,-5.0997,-5.094,-5.101,-5.1048,-5.1018,-5.1285,-5.1212,-5.1245,-5.1337,-5.1604,-5.1617,-5.163,-5.1708,-5.1735,-5.1757,0,0,0,0,0,0,-5.0557,-5.0644,-5.0628,-5.0804,-5.0876,-5.0954,-5.1043,-5.1025,-5.1114,-5.1103,-5.1113,-5.1133,-5.1289,-5.1328,-5.1246,-5.1515,-5.1436,-5.1456,-5.1484,-5.151,-5.1529,-5.1516,-5.1175,0,0,0,0,0,-5.0593,-5.0699,-5.0768,-5.0916,-5.0954,-5.0992,-5.1052,-5.1056,-5.113,-5.116,-5.121,-5.1283,-5.1382,-5.1448,-5.1544,-5.1723,-5.1739,-5.1802,-5.1822,-5.1838,-5.1855,-5.195,-5.1978,-5.168,-5.168,-5.168,0,0,-5.0668,-5.0728,-5.0794,-5.0932,-5.0988,-5.1095,-5.1018,-5.1135,-5.1214,-5.1178,-5.1325,-5.1364,-5.1445,-5.1611,-5.1687,-5.1649,-5.1941,-5.1855,-5.1867,-5.1876,-5.1967,-5.1995,-5.202,-5.1689,-5.1688,-5.1686,0,0,-5.0859,-5.0916,-5.1046,-5.1104,-5.119,-5.1214,-5.1245,-5.1326,-5.135,-5.1498,-5.1472,-5.1565,-5.1738,-5.1797,-5.1849,-5.206,-5.2035,-5.2091,-5.2194,-5.2287,-5.2311,-5.2331,-5.2405,-5.2432,-5.2108,-5.2108,-5.2108,0,-5.0941,-5.1103,-5.1114,-5.1233,-5.1293,-5.1266,-5.1395,-5.1451,-5.1564,-5.1605,-5.1561,-5.1776,-5.1829,-5.2007,-5.2058,-5.2102,-5.2136,-5.2081,-5.2307,-5.2328,-5.2347,-5.2417,-5.2445,-5.2114,-5.2113,-5.2113,-5.2112,0,-5.1199,-5.1311,-5.1405,-5.1515,-5.1586,-5.1709,-5.1737,-5.1807,-5.1804,-5.1832,-5.1981,-5.2044,-5.2151,-5.2193,-5.2191,-5.2371,-5.2344,-5.2304,-5.2224,-5.2381,-5.2447,-5.2475,-5.2123,-5.2121,-5.2119,-5.2117,0,0,-5.1439,-5.1553,-5.1587,-5.1636,-5.1728,-5.1814,-5.1936,-5.2041,-5.21,-5.2178,-5.2278,-5.2424,-5.2386,-5.2446,-5.2449,-5.2531,-5.2692,-5.248,-5.2482,-5.2516,-5.2892,-5.2921,-5.2952,-5.2676,-5.2681,-5.2685,-5.2884,0,-5.1638,-5.1853,-5.1865,-5.2059,-5.2162,-5.2136,-5.2241,-5.2308,-5.2337,-5.2427,-5.2458,-5.2561,-5.2504,-5.254,-5.2619,-5.2656,-5.2767,-5.2641,-5.2768,-5.2772,-5.2748,-5.2987,-5.3019,-5.3204,-5.291,-5.2915,-5.2918,0,-5.1898,-5.1984,-5.2189,-5.2265,-5.2308,-5.2403,-5.2499,-5.2586,-5.266,-5.2675,-5.2741,-5.2733,-5.2855,-5.2771,-5.2938,-5.2852,-5.2904,-5.2929,-5.2937,-5.2948,-5.2854,-5.3004,-5.3264,-5.3291,-5.2959,-5.2956,-5.2953,0,-5.2051,-5.2219,-5.2362,-5.2405,-5.2497,-5.2564,-5.2605,-5.2675,-5.2736,-5.282,-5.2859,-5.2956,-5.3008,-5.3082,-5.3098,-5.3036,-5.3265,-5.3183,-5.3279,-5.3279,-5.3328,-5.3325,-5.3599,-5.3364,-5.3363,-5.3363,-5.3362,0,-5.2271,-5.2397,-5.2432,-5.252,-5.266,-5.2671,-5.2808,-5.2845,-5.2906,-5.3,-5.2983,-5.307,-5.3088,-5.3178,-5.3192,-5.3327,-5.3351,-5.3365,-5.3367,-5.3367,-5.3365,-5.34,-5.3388,-5.337,-5.3368,-5.3367,-5.3366,0,-5.2466,-5.2495,-5.2649,-5.2724,-5.2745,-5.2845,-5.2907,-5.2991,-5.3017,-5.3136,-5.3164,-5.3205,-5.3311,-5.3335,-5.346,-5.3469,-5.3629,-5.3619,-5.3604,-5.3603,-5.3697,-5.3688,-5.4004,-5.4045,-5.3783,-5.3786,-5.3788,0,-5.2604,-5.27,-5.2785,-5.2846,-5.2891,-5.2991,-5.3053,-5.3068,-5.3133,-5.3224,-5.3296,-5.34,-5.3484,-5.3653,-5.3693,-5.3788,-5.378,-5.3884,-5.3794,-5.3789,-5.3779,-5.3773,-5.3782,-5.3901,-5.3903,-5.3906,-5.3908,0,-5.2845,-5.2854,-5.2946,-5.3042,-5.3118,-5.3194,-5.3267,-5.3318,-5.3342,-5.3416,-5.3524,-5.3589,-5.3717,-5.3819,-5.3914,-5.3954,-5.3935,-5.3935,-5.3962,-5.3962,-5.3949,-5.3956,-5.365,-5.3928,-5.3926,-5.3925,-5.3923,-5.3923,-5.3015,-5.3099,-5.3171,-5.3273,-5.3329,-5.3397,-5.3478,-5.3515,-5.3606,-5.3711,-5.3714,-5.3831,-5.39,-5.4026,-5.4072,-5.4162,-5.413,-5.417,-5.4179,-5.4189,-5.4197,-5.3936,-5.418,-5.4179,-5.4179,-5.4178,-5.4178,0,-5.3254,-5.3299,-5.3393,-5.3495,-5.3575,-5.355,-5.3628,-5.3696,-5.38,-5.3867,-5.3949,-5.4072,-5.4171,-5.4218,-5.4315,-5.4378,-5.4371,-5.4403,-5.4398,-5.4407,-5.4221,-5.4187,-5.4407,-5.4407,-5.4407,-5.4407,-5.4407,-5.4407,-5.3388,-5.3528,-5.3545,-5.3711,-5.3754,-5.387,-5.3916,-5.3978,-5.4031,-5.4169,-5.4252,-5.4282,-5.434,-5.4441,-5.453,-5.4541,-5.4577,-5.4613,-5.4619,-5.4444,-5.4421,-5.4399,-5.4367,-5.4621,-5.4621,-5.4798,-5.48,-5.4801]}]]